Volver al catálogo

KUIPER-00544

ActivoComunicacionesVLEO
NORAD 69613·PAYLOAD·🇺🇸 United States

Lanzado Jun 17, 2026 desde Guiana Space Centre

Loading…

Próximos Pases (próximas 24 horas)

TLE

ActualizadoSource: CelesTrak SupGP

Época: Sep 14, 2026, 21:27 UTC

1 69613C 26140X   26257.89385417 -.01142100  00000+0 -46104-1 0  2578
2 69613  51.8799 324.9732 0005124 154.6054 235.5589 15.25354474    11

Sigue KUIPER-00544 en tiempo real con AllMySat

Download on the App Store